Location: Waco, TX
(31.5480°N, 97.1670°W)
Time: 09:31:32
(UTC-05:00)

ISS - Pass Details

Date: 18 August 2018
Orbit: 402 x 409 km, 51.6° (Epoch: 18 August)

Event Time Altitude Azimuth Distance (km) Brightness Sun altitude
Rises 10:35:18 0° 242° (WSW) 2,303 -0.3 45.4°
Reaches altitude 10° 10:37:29 10° 252° (WSW) 1,446 -1.3 45.8°
Maximum altitude 10:40:29 34° 319° (NW) 685 -2.7 46.4°
Drops below altitude 10° 10:43:29 10° 27° (NNE) 1,451 -0.8 47.1°
Sets 10:45:41 0° 37° (NE) 2,312 0.2 47.5°
